Regional Weather Roundup
Issued by NWS Charleston, SC

Current Version | Previous Version | Text Only | Print | Product List | Glossary Off
Versions: 1 2 3 4 5 6 7 8 9 10 11 12 13 14 15 16 17 18 19 20 21 22 23 24 25 26 27 28 29 30 31 32 33 34 35 36 37 38 39 40 41 42 43 44 45 46 47 48 49 50

000
ASUS42 KCHS 061027
RWRCHS

REGIONAL WEATHER ROUNDUP
NATIONAL WEATHER SERVICE CHARLESTON SC
600 AM EDT WED MAY 06 2015

NOTE: "FAIR" INDICATES FEW OR NO CLOUDS BELOW 12,000 FEET WITH NO
SIGNIFICANT WEATHER AND/OR OBSTRUCTIONS TO VISIBILITY.

NOT ALL STATIONS ARE QUALITY CONTROLLED BY THE NATIONAL
WEATHER SERVICE. USE DATA WITH CAUTION...ESPECIALLY
DEWPOINT OBSERVATIONS.

SCZ027-030-031-034>040-042>050-061100-
...SOUTHEAST SOUTH CAROLINA...

CITY           SKY/WX    TMP DP  RH WIND       PRES   REMARKS
N CHARLESTON   MOCLDY    61  59  93 NE6       30.17F
WATERFRONT PRK   N/A     64 N/A N/A N13         N/A
MOUNT PLEASANT FAIR      63  63 100 MISG      30.17S FOG
PINOPOLIS      NOT AVBL
MONCKS CORNER  FAIR      61  59  94 N3        30.18S
SUMMERVILLE    FAIR      55  55 100 N3        30.19S
BEAUFORT MCAS  CLEAR     62  60  93 N8        30.16S
BEAUFORT ARPT  PTSUNNY   63  63 100 CALM      30.16R
HILTON HEAD IS NOT AVBL
WALTERBORO     MOSUNNY   57  57 100 N5        30.18F
ALLENDALE      FAIR      59  59 100 N6        30.18S

...SOUTHERN MIDLANDS AND PEE DEE...

CITY           SKY/WX    TMP DP  RH WIND       PRES   REMARKS
GEORGETOWN     NOT AVBL
KINGSTREE      NOT AVBL
ORANGEBURG     PTCLDY    56  53  90 CALM      30.20F
BARNWELL       FAIR      57  57 100 CALM      30.20F
AIKEN          FAIR      52  50  93 CALM      30.24S
MANNING        FAIR      54  50  87 CALM      30.20S
COLUMBIA       PTCLDY    55  51  86 CALM      30.21S
SUMTER         PTCLDY    56  53  91 NE5       30.20S
FLORENCE       PTCLDY    57  54  89 CALM      30.22S
MYRTLE BEACH   PTCLDY    61  55  82 N7        30.22S
N MYRTLE BEACH CLOUDY    59  56  89 NE5       30.20S

$$

GAZ063-065-086>088-099>101-113>116-118-119-134>141-150-061100-
...SOUTHEAST GEORGIA...

CITY           SKY/WX    TMP DP  RH WIND       PRES   REMARKS
SAVANNAH ARPT  PTCLDY    60  59  96 N6        30.16S
HUNTER AAF     CLEAR     64  63  97 N5        30.12F
FORT STEWART   FAIR      61  59  93 NE8       30.12F
STATESBORO       N/A     59  59 100 CALM      30.17F
SYLVANIA       CLOUDY    59  59 100 CALM      30.18F
CLAXTON        FAIR      57  57 100 CALM      30.16F

...CSRA...CENTRAL AND FAR SOUTHEAST GEORGIA...

CITY           SKY/WX    TMP DP  RH WIND       PRES   REMARKS
THOMSON        CLEAR     52  52 100 CALM      30.26R
AUGUSTA-BUSH   PTCLDY    51  50  96 CALM      30.20S
AUGUSTA-DANIEL PTCLDY    62  56  80 NE3       30.21S
SWAINSBORO     FAIR      61  61 100 NE6       30.19S
VIDALIA        PTCLDY    59  59 100 CALM      30.17S
EASTMAN        FAIR      55  55 100 CALM      30.20S
HAZLEHURST     FAIR      61  61  99 NE3       30.14F
ALMA           CLEAR     62  60  93 N3        30.14F
WAYCROSS       CLEAR     64  63  98 CALM      30.13S
JESUP          FAIR      64  63  94 NE3       30.14S
BAXLEY         FAIR      63  61  94 NE3       30.14S
BRUNSWICK      PTCLDY    64  63  94 N3        30.12F
SAINT SIMONS   CLOUDY    69  65  86 N8        30.12S

$$

SCZ027-028-034-036>038-045-046-048>050-GAZ119-141-061100-
...LAKE AND SUPPLEMENTAL COASTAL OBSERVATIONS...

STATION/POSITION TIME  TEMP    WIND        PRES    WAVE   SWELL
                       AIR SEA DIR/SP/G            HT/PER HT/PER/DIR
                 (UTC) (F)     (DEG/KT/KT) (MB)    (FT/S) (FT/S/D)
UPR LAKE MARION  NOT AVBL
WINYAH BAY       0900   66      30/  5     1021.0
LAKE MURRAY      0900   62      CALM  /  1 1022.7S
ACE BASIN NERRS  NOT AVBL
FORT PULASKI     1000          360/  6/  7   N/A
SAPELO ISLAND    1000   67      20/  5     1020.0S

$$

ANZ835-935-AMZ111-154-330-350-352-354-370-450-454-472-061100-
...C-MAN AND BUOY OBSERVATIONS...

STATION/POSITION TIME  TEMP    WIND        PRES    WAVE   SWELL
                       AIR SEA DIR/SP/G            HT/PER HT/PER/DIR
                 (UTC) (F)     (DEG/KT/KT) (MB)    (FT/S) (FT/S/D)
BUOY 41004       0950   73 73   70/ 16/ 17 1020.0F   5/ 8   3/ 8
BUOY 41008       0950   70 70   40/ 14/ 16 1019.9F   5/ 8   3/120/ 8
FOLLY BEACH CMAN 1000   67      20/ 11/ 13 1021.1F
CAPERS NEARSHORE 0908   69      40/ 14/ 19 1021.6F
FRIPP NEARSHORE  0900   69      30/ 14/ 16 1020.6F


STATION/POSITION TIME  TEMP    WIND        PRES    WAVE   SWELL
                       AIR SEA DIR/SP/G            HT/PER HT/PER/DIR
                 (UTC) (F)     (DEG/KT/KT) (MB)    (FT/S) (FT/S/D)
5E ST. MARYS GA  0921      72                N/A     5/ 8
FRYING PAN BUOY  0950   72 71   90/ 10/ 14 1022.8F   5/ 7   3/140/ 7
BUOY 41025       0950   70 75  110/  4/  6 1024.3F   3/ 8   2/ 80/ 8
CAPE LOOKOUT NC  1000   67      50/  6/  6 1023.3F
BUOY 41002       0950   69 71   90/ 19/ 23 1021.0F   7/ 8   3/120/ 8
BUOY 41010       0920   72 78   60/ 17/ 21 1015.4F
ST AUGUSTINE FL  1000   71 72  360/ 12/ 13 1018.8F


$$


USA.gov is the U.S. government's official web portal to all federal, state and local government web resources and services.